If you wish to contribute or participate in the discussions about articles you are invited to join SKYbrary as a registered user

 Actions

Angers-Loire Airport

From SKYbrary Wiki

LFJR
Airport
ICAO: LFJR – IATA: ANE
Summary
Name Angers-Loire Airport
Region Europe
Territory France FR.gif
Location Marcé, Pays de la Loire
Serving Angers
Elevation 59.131 m
194 ft
194 ft59.131 m
Type medium airport
Coordinates 47° 33' 37.08" N, 0° 18' 44.00" W
Runways
Designator Length Width Surface ROPS
8/26 1800 m5,905.512 ft
45 m147.638 ft
ASP yes/yes


METAR
Observation LFJR 231330Z AUTO 14005KT 100V170 CAVOK 19/11 Q0995 TEMPO BKN030TCU SCT050CB
Station MARCE
Date/Time 23 April 2019 13:30:00
Wind direction 140°
Wind speed 05 kts
Lowest cloud amount broken clouds
Temperature 19°C
Dew point 11°C
Humidity 59%
QNH 995 hPa
Weather condition n/a

Maps

Terrain

Loading map...

Airport Layout

Loading map...


Accidents & Serious Incidents at or in vicinity of LFJR

None on SKYbrary